Location: North Bay Shore
(40.7362°N, 73.2626°W)
Time: 10:17:02
(UTC+00:00)

Cosmos 1455 - Pass Details

Date: 29 October 2020
Orbit: 500 x 521 km, 82.5° (Epoch: 23 November)

Event Time Altitude Azimuth Distance (km) Brightness Sun altitude
Rises 22:35:12 0° 157° (SSE) 2,593 5.6 -8.7°
Reaches altitude 10° 22:37:36 10° 143° (SE) 1,718 4.6 -9.1°
Maximum altitude 22:40:37 23° 89° (E) 1,119 3.3 -9.7°
Drops below altitude 10° 22:43:39 10° 36° (NE) 1,741 4.5 -10.3°
Sets 22:46:06 0° 22° (NNE) 2,637 5.5 -10.7°
